Location: Puketoi
(40.5833°S, 176.0167°E)
Time: 14:14:04
(UTC+00:00)

SL-16 R/B - Pass Details

Date: 08 February 2023
Orbit: 842 x 846 km, 71.0° (Epoch: 30 March)

Event Time Altitude Azimuth Distance (km) Brightness Sun altitude
Rises 16:23:54 0° 1° (N) 3,395 5.0 -12.5°
Reaches altitude 10° 16:26:29 10° 8° (N) 2,468 4.4 -12.1°
Maximum altitude 16:31:41 38° 75° (ENE) 1,269 3.6 -11.2°
Drops below altitude 10° 16:36:56 10° 141° (SE) 2,495 5.9 -10.4°
Sets 16:39:32 0° 148° (SSE) 3,436 6.6 -10.0°
